Regional Weather Roundup
Issued by NWS Sioux Falls, SD

Home | Current Version | Previous Version | Graphics & Text | Print | Product List | Glossary Off
Versions: 1 2 3 4 5 6 7 8 9 10 11 12 13 14 15 16 17 18 19 20 21 22 23 24 25 26 27 28 29 30 31 32 33 34 35 36 37 38 39 40 41 42 43 44 45 46 47 48 49 50

000
ASUS43 KFSD 092202
RWRFSD

WEATHER ROUNDUP FOR SE SOUTH DAKOTA/SW MINNESOTA/NW IOWA
NATIONAL WEATHER SERVICE SIOUX FALLS SD
500 PM CDT WED JUL 09 2014

NOTE: "FAIR" INDICATES FEW OR NO CLOUDS BELOW 12,000 FEET WITH NO
SIGNIFICANT WEATHER AND OR OBSTRUCTIONS TO VISIBILITY.


SDZ038>040-050-052>070-092300-
SOUTHEAST SOUTH DAKOTA

CITY           SKY/WX    TMP DP  RH WIND       PRES   REMARKS
CHAMBERLAIN    MOSUNNY   81  58  44 S12G18    29.98F
HURON          SUNNY     82  55  39 E3        29.98F HAZE
MADISON        FAIR      77  55  47 NW6       30.02S
MITCHELL       SUNNY     83  54  36 CALM      29.99S HAZE
SIOUX FALLS    MOSUNNY   82  55  39 NW9       30.00S
WINNER         MOCLDY    73  56  54 S13       30.01F
YANKTON        SUNNY     82  57  42 SW3       30.00F
$$

MNZ071-072-080-081-089-090-097-098-092300-
SOUTHWEST MINNESOTA

CITY           SKY/WX    TMP DP  RH WIND       PRES   REMARKS
FAIRMONT       SUNNY     81  48  32 N9        30.00F
JACKSON        MOSUNNY   79  52  38 N3        30.02F
LUVERNE        MOSUNNY   81  52  36 W8        30.01S
MARSHALL       SUNNY     79  52  38 MISG      30.00F
MONTEVIDEO     MOSUNNY   82  54  36 N3        30.01S
PIPESTONE      MOSUNNY   79  55  44 CALM      30.02S
REDWOOD FALLS  SUNNY     80  50  34 NW7       29.99F
TRACY          SUNNY     79  53  41 NW8       30.01S
WINDOM         MOSUNNY   79  54  41 NW10      30.02S
WORTHINGTON    MOSUNNY   79  57  47 N3        30.03F
$$

IAZ001>003-012>014-020>022-031-032-NEZ013-014-SDZ071-092300-
NORTHWEST IOWA

CITY           SKY/WX    TMP DP  RH WIND       PRES   REMARKS
CHEROKEE       SUNNY     79  58  49 W6        30.01F
DENISON        MOSUNNY   79  61  53 CALM      30.02F
ESTHERVILLE    MOSUNNY   79  54  41 NW7       30.01S
LE MARS        PTSUNNY   81  61  50 S6        30.02S
ORANGE CITY    SUNNY     81  57  44 W5        30.02S
SHELDON        MOSUNNY   79  59  50 SW12      30.01S
SIOUX CITY     MOSUNNY   82  61  48 S6        30.01S
SPENCER        MOSUNNY   80  58  46 W10       30.01F
STORM LAKE     SUNNY     79  61  53 W9        30.04S
$$

ABBREVIATIONS USED IN REMARKS
   TC - TEMPERATURE IN CELSIUS
  WCI - WIND CHILL INDEX
   HX - HEAT INDEX
  VSB - VISIBILITY




USA.gov is the U.S. government's official web portal to all federal, state and local government web resources and services.